Location: Haliburton Scout Reserve
(45.0900°N, 78.3200°W)
Time: 05:56:16
(UTC-05:00)

Envisat - Visible Passes

Search period start: 06 December 2021 00:00
Search period end: 16 December 2021 00:00
Orbit: 764 x 766 km, 98.2° (Epoch: 05 December)

Date Brightness Start Highest point End Pass type
(mag) Time Alt. Az. Time Alt. Az. Time Alt. Az.
06 Dec 5.1 04:21:13 10° NE 04:25:24 25° E 04:29:34 10° SSE visible
06 Dec 3.3 05:59:47 10° N 06:04:35 43° WNW 06:09:21 10° SW visible
06 Dec 5.4 17:17:03 10° SSW 17:21:18 27° W 17:25:35 10° NW visible
07 Dec 6.0 03:46:24 10° ENE 03:48:07 12° E 03:49:49 10° ESE visible
07 Dec 2.9 05:22:43 10° NNE 05:27:50 90° WNW 05:32:55 10° SSW visible
08 Dec 4.1 04:46:03 10° NNE 04:50:53 42° E 04:55:41 10° S visible
08 Dec 3.9 06:25:30 10° N 06:29:41 27° WNW 06:33:53 10° WSW visible
08 Dec 5.9 17:43:49 10° SW 17:46:53 16° W 17:49:56 10° NW visible
09 Dec 5.4 04:10:01 10° NE 04:13:44 20° E 04:17:27 10° SE visible
09 Dec 3.0 05:48:07 10° N 05:53:05 54° WNW 05:58:00 10° SSW visible
09 Dec 5.0 17:05:06 10° SSW 17:09:40 33° W 17:14:16 10° NNW visible
10 Dec 3.1 05:11:11 10° NNE 05:16:16 73° ESE 05:21:20 10° S visible
10 Dec 4.4 06:51:32 10° NNW 06:54:42 17° WNW 06:57:51 10° W visible
11 Dec 4.5 04:34:39 10° NNE 04:39:16 34° E 04:43:50 10° SSE visible
11 Dec 3.6 06:13:44 10° N 06:18:14 33° WNW 06:22:43 10° SW visible
11 Dec 5.8 17:31:30 10° SW 17:35:11 20° W 17:38:54 10° NW visible
12 Dec 5.7 03:58:57 10° NE 04:02:03 16° E 04:05:08 10° SE visible
12 Dec 2.9 05:36:30 10° N 05:41:33 68° WNW 05:46:35 10° SSW visible
13 Dec 3.5 04:59:40 10° NNE 05:04:41 57° E 05:09:41 10° S visible
13 Dec 4.2 06:39:36 10° NNW 06:43:17 21° WNW 06:46:58 10° WSW visible
13 Dec 6.2 17:59:10 10° WSW 18:00:49 11° W 18:02:28 10° WNW visible
14 Dec 4.9 04:23:19 10° NE 04:27:37 27° E 04:31:54 10° SSE visible
14 Dec 3.3 06:02:00 10° N 06:06:45 40° WNW 06:11:28 10° SW visible
14 Dec 5.5 17:19:22 10° SSW 17:23:31 25° W 17:27:42 10° NW visible
15 Dec 5.9 03:48:12 10° ENE 03:50:20 12° E 03:52:28 10° ESE visible
15 Dec 2.8 05:24:54 10° NNE 05:30:01 84° WNW 05:35:06 10° SSW visible
15 Dec 4.6 07:06:02 10° NNW 07:08:14 13° WNW 07:10:26 10° W visible
